owner,sensor,date,latitude,longitude,vertical_datum,sea_water_practical_salinity,qcFlag 
TABS,ioos:station:wmo:42043:1,2006-03-01T00:00:00Z,28.9818,-94.9186,2.0,25.06,11111222 
TABS,ioos:station:wmo:42043:1,2006-03-01T00:30:00Z,28.9818,-94.9186,2.0,25.15,11111222 
TABS,ioos:station:wmo:42043:1,2006-03-01T01:00:00Z,28.9818,-94.9186,2.0,25.1,11111222 
TABS,ioos:station:wmo:42043:1,2006-03-01T01:30:00Z,28.9818,-94.9186,2.0,24.87,11111222 
TABS,ioos:station:wmo:42043:1,2006-03-01T02:00:00Z,28.9818,-94.9186,2.0,24.52,11111222 
TABS,ioos:station:wmo:42043:1,2006-03-01T02:30:00Z,28.9818,-94.9186,2.0,24.87,11111222 
TABS,ioos:station:wmo:42043:1,2006-03-01T03:00:00Z,28.9818,-94.9186,2.0,25.2,11111222 
TABS,ioos:station:wmo:42043:1,2006-03-01T04:00:00Z,28.9818,-94.9186,2.0,26.16,11111222 
TABS,ioos:station:wmo:42043:1,2006-03-01T04:30:00Z,28.9818,-94.9186,2.0,26.13,11111222 
TABS,ioos:station:wmo:42043:1,2006-03-01T05:00:00Z,28.9818,-94.9186,2.0,26.39,11111222 
TABS,ioos:station:wmo:42043:1,2006-03-01T05:30:00Z,28.9818,-94.9186,2.0,26.38,11111222 
TABS,ioos:station:wmo:42043:1,2006-03-01T06:00:00Z,28.9818,-94.9186,2.0,26.31,11111222 
TABS,ioos:station:wmo:42043:1,2006-03-01T06:30:00Z,28.9818,-94.9186,2.0,26.41,11111222 
TABS,ioos:station:wmo:42043:1,2006-03-01T07:00:00Z,28.9818,-94.9186,2.0,26.44,11111222 
TABS,ioos:station:wmo:42043:1,2006-03-01T07:30:00Z,28.9818,-94.9186,2.0,26.61,11111222 
TABS,ioos:station:wmo:42043:1,2006-03-01T08:00:00Z,28.9818,-94.9186,2.0,26.55,11111222 
TABS,ioos:station:wmo:42043:1,2006-03-01T08:30:00Z,28.9818,-94.9186,2.0,26.48,11111222 
TABS,ioos:station:wmo:42043:1,2006-03-01T09:00:00Z,28.9818,-94.9186,2.0,26.47,11111222 
TABS,ioos:station:wmo:42043:1,2006-03-01T09:30:00Z,28.9818,-94.9186,2.0,26.47,11111222 
TABS,ioos:station:wmo:42043:1,2006-03-01T10:00:00Z,28.9818,-94.9186,2.0,26.59,11111222 
TABS,ioos:station:wmo:42043:1,2006-03-01T10:30:00Z,28.9818,-94.9186,2.0,26.59,11111222 
TABS,ioos:station:wmo:42043:1,2006-03-01T11:00:00Z,28.9818,-94.9186,2.0,26.35,11111222 
TABS,ioos:station:wmo:42043:1,2006-03-01T11:30:00Z,28.9818,-94.9186,2.0,26.52,11111222 
TABS,ioos:station:wmo:42043:1,2006-03-01T12:00:00Z,28.9818,-94.9186,2.0,26.07,11111222 
TABS,ioos:station:wmo:42043:1,2006-03-01T12:30:00Z,28.9818,-94.9186,2.0,25.2,11111222 
TABS,ioos:station:wmo:42043:1,2006-03-01T13:00:00Z,28.9818,-94.9186,2.0,26.16,11111222 
TABS,ioos:station:wmo:42043:1,2006-03-01T13:30:00Z,28.9818,-94.9186,2.0,26.0,11111222 
TABS,ioos:station:wmo:42043:1,2006-03-01T14:00:00Z,28.9818,-94.9186,2.0,25.79,11111222 
TABS,ioos:station:wmo:42043:1,2006-03-01T14:30:00Z,28.9818,-94.9186,2.0,25.55,11111222 
TABS,ioos:station:wmo:42043:1,2006-03-01T15:00:00Z,28.9818,-94.9186,2.0,25.74,11111222 
TABS,ioos:station:wmo:42043:1,2006-03-01T15:30:00Z,28.9818,-94.9186,2.0,25.63,11111222 
TABS,ioos:station:wmo:42043:1,2006-03-01T16:00:00Z,28.9818,-94.9186,2.0,26.06,11111222 
TABS,ioos:station:wmo:42043:1,2006-03-01T16:30:00Z,28.9818,-94.9186,2.0,26.14,11111222 
TABS,ioos:station:wmo:42043:1,2006-03-01T17:00:00Z,28.9818,-94.9186,2.0,26.12,11111222 
TABS,ioos:station:wmo:42043:1,2006-03-01T17:30:00Z,28.9818,-94.9186,2.0,25.72,11111222 
TABS,ioos:station:wmo:42043:1,2006-03-01T18:00:00Z,28.9818,-94.9186,2.0,25.1,11111222 
TABS,ioos:station:wmo:42043:1,2006-03-01T18:30:00Z,28.9818,-94.9186,2.0,25.13,11111222 
TABS,ioos:station:wmo:42043:1,2006-03-01T19:00:00Z,28.9818,-94.9186,2.0,25.09,11111222 
TABS,ioos:station:wmo:42043:1,2006-03-01T19:30:00Z,28.9818,-94.9186,2.0,25.36,11111222 
TABS,ioos:station:wmo:42043:1,2006-03-01T20:00:00Z,28.9818,-94.9186,2.0,25.83,11111222 
TABS,ioos:station:wmo:42043:1,2006-03-01T20:30:00Z,28.9818,-94.9186,2.0,25.61,11111222 
TABS,ioos:station:wmo:42043:1,2006-03-01T21:00:00Z,28.9818,-94.9186,2.0,25.63,11111222 
TABS,ioos:station:wmo:42043:1,2006-03-01T21:30:00Z,28.9818,-94.9186,2.0,25.9,11111222 
TABS,ioos:station:wmo:42043:1,2006-03-01T22:00:00Z,28.9818,-94.9186,2.0,25.9,11111222 
TABS,ioos:station:wmo:42043:1,2006-03-01T22:30:00Z,28.9818,-94.9186,2.0,25.21,11111222 
TABS,ioos:station:wmo:42043:1,2006-03-01T23:00:00Z,28.9818,-94.9186,2.0,25.61,11111222 
TABS,ioos:station:wmo:42043:1,2006-03-01T23:30:00Z,28.9818,-94.9186,2.0,26.31,11111222 
TABS,ioos:station:wmo:42043:1,2006-03-02T00:00:00Z,28.9818,-94.9186,2.0,26.95,11111222 
TABS,ioos:station:wmo:42043:1,2006-03-02T00:30:00Z,28.9818,-94.9186,2.0,27.15,11111222 
TABS,ioos:station:wmo:42043:1,2006-03-02T01:00:00Z,28.9818,-94.9186,2.0,27.06,11111222 
TABS,ioos:station:wmo:42043:1,2006-03-02T01:30:00Z,28.9818,-94.9186,2.0,27.12,11111222 
TABS,ioos:station:wmo:42043:1,2006-03-02T02:00:00Z,28.9818,-94.9186,2.0,27.37,11111222 
TABS,ioos:station:wmo:42043:1,2006-03-02T02:30:00Z,28.9818,-94.9186,2.0,27.41,11111222 
TABS,ioos:station:wmo:42043:1,2006-03-02T03:00:00Z,28.9818,-94.9186,2.0,27.35,11111222 
TABS,ioos:station:wmo:42043:1,2006-03-02T03:30:00Z,28.9818,-94.9186,2.0,27.36,11111222 
TABS,ioos:station:wmo:42043:1,2006-03-02T04:00:00Z,28.9818,-94.9186,2.0,27.39,11111222 
TABS,ioos:station:wmo:42043:1,2006-03-02T04:30:00Z,28.9818,-94.9186,2.0,26.85,11111222 
TABS,ioos:station:wmo:42043:1,2006-03-02T05:00:00Z,28.9818,-94.9186,2.0,26.46,11111222 
TABS,ioos:station:wmo:42043:1,2006-03-02T05:30:00Z,28.9818,-94.9186,2.0,26.83,11111222 
TABS,ioos:station:wmo:42043:1,2006-03-02T06:00:00Z,28.9818,-94.9186,2.0,27.22,11111222 
TABS,ioos:station:wmo:42043:1,2006-03-02T06:30:00Z,28.9818,-94.9186,2.0,26.88,11111222 
TABS,ioos:station:wmo:42043:1,2006-03-02T07:00:00Z,28.9818,-94.9186,2.0,26.59,11111222 
TABS,ioos:station:wmo:42043:1,2006-03-02T07:30:00Z,28.9818,-94.9186,2.0,27.14,11111222 
TABS,ioos:station:wmo:42043:1,2006-03-02T08:00:00Z,28.9818,-94.9186,2.0,27.16,11111222 
TABS,ioos:station:wmo:42043:1,2006-03-02T08:30:00Z,28.9818,-94.9186,2.0,27.35,11111222 
TABS,ioos:station:wmo:42043:1,2006-03-02T09:00:00Z,28.9818,-94.9186,2.0,27.35,11111222 
TABS,ioos:station:wmo:42043:1,2006-03-02T09:30:00Z,28.9818,-94.9186,2.0,26.58,11111222 
TABS,ioos:station:wmo:42043:1,2006-03-02T10:00:00Z,28.9818,-94.9186,2.0,26.51,11111222 
TABS,ioos:station:wmo:42043:1,2006-03-02T10:30:00Z,28.9818,-94.9186,2.0,26.35,11111222 
TABS,ioos:station:wmo:42043:1,2006-03-02T11:00:00Z,28.9818,-94.9186,2.0,25.95,11111222 
TABS,ioos:station:wmo:42043:1,2006-03-02T11:30:00Z,28.9818,-94.9186,2.0,26.46,11111222 
TABS,ioos:station:wmo:42043:1,2006-03-02T12:00:00Z,28.9818,-94.9186,2.0,26.21,11111222 
TABS,ioos:station:wmo:42043:1,2006-03-02T12:30:00Z,28.9818,-94.9186,2.0,26.12,11111222 
TABS,ioos:station:wmo:42043:1,2006-03-02T13:00:00Z,28.9818,-94.9186,2.0,26.5,11111222 
TABS,ioos:station:wmo:42043:1,2006-03-02T13:30:00Z,28.9818,-94.9186,2.0,25.74,11111222 
TABS,ioos:station:wmo:42043:1,2006-03-02T14:00:00Z,28.9818,-94.9186,2.0,25.11,11111222 
TABS,ioos:station:wmo:42043:1,2006-03-02T14:30:00Z,28.9818,-94.9186,2.0,25.02,11111222 
TABS,ioos:station:wmo:42043:1,2006-03-02T15:00:00Z,28.9818,-94.9186,2.0,24.83,11111222 
TABS,ioos:station:wmo:42043:1,2006-03-02T15:30:00Z,28.9818,-94.9186,2.0,24.06,11111222 
TABS,ioos:station:wmo:42043:1,2006-03-02T16:00:00Z,28.9818,-94.9186,2.0,24.06,11111222 
TABS,ioos:station:wmo:42043:1,2006-03-02T16:30:00Z,28.9818,-94.9186,2.0,24.01,11111222 
TABS,ioos:station:wmo:42043:1,2006-03-02T17:00:00Z,28.9818,-94.9186,2.0,23.99,11111222 
TABS,ioos:station:wmo:42043:1,2006-03-02T17:30:00Z,28.9818,-94.9186,2.0,23.63,11111222 
TABS,ioos:station:wmo:42043:1,2006-03-02T18:00:00Z,28.9818,-94.9186,2.0,23.58,11111222 
TABS,ioos:station:wmo:42043:1,2006-03-02T18:30:00Z,28.9818,-94.9186,2.0,23.82,11111222 
TABS,ioos:station:wmo:42043:1,2006-03-02T19:00:00Z,28.9818,-94.9186,2.0,24.41,11111222 
TABS,ioos:station:wmo:42043:1,2006-03-02T19:30:00Z,28.9818,-94.9186,2.0,23.93,11111222 
TABS,ioos:station:wmo:42043:1,2006-03-02T20:00:00Z,28.9818,-94.9186,2.0,24.55,11111222 
TABS,ioos:station:wmo:42043:1,2006-03-02T20:30:00Z,28.9818,-94.9186,2.0,26.05,11111222 
TABS,ioos:station:wmo:42043:1,2006-03-02T21:00:00Z,28.9818,-94.9186,2.0,25.86,11111222 
TABS,ioos:station:wmo:42043:1,2006-03-02T21:30:00Z,28.9818,-94.9186,2.0,26.66,11111222 
TABS,ioos:station:wmo:42043:1,2006-03-02T22:00:00Z,28.9818,-94.9186,2.0,26.91,11111222 
TABS,ioos:station:wmo:42043:1,2006-03-02T22:30:00Z,28.9818,-94.9186,2.0,27.09,11111222 
TABS,ioos:station:wmo:42043:1,2006-03-02T23:00:00Z,28.9818,-94.9186,2.0,27.26,11111222 
TABS,ioos:station:wmo:42043:1,2006-03-02T23:30:00Z,28.9818,-94.9186,2.0,27.01,11111222 
TABS,ioos:station:wmo:42043:1,2006-03-03T00:00:00Z,28.9818,-94.9186,2.0,26.69,11111222 
TABS,ioos:station:wmo:42043:1,2006-03-03T00:30:00Z,28.9818,-94.9186,2.0,26.41,11111222 
TABS,ioos:station:wmo:42043:1,2006-03-03T01:00:00Z,28.9818,-94.9186,2.0,26.63,11111222 
TABS,ioos:station:wmo:42043:1,2006-03-03T01:30:00Z,28.9818,-94.9186,2.0,26.18,11111222 
TABS,ioos:station:wmo:42043:1,2006-03-03T02:00:00Z,28.9818,-94.9186,2.0,25.56,11111222 
TABS,ioos:station:wmo:42043:1,2006-03-03T02:30:00Z,28.9818,-94.9186,2.0,25.48,11111222 
TABS,ioos:station:wmo:42043:1,2006-03-03T03:00:00Z,28.9818,-94.9186,2.0,25.23,11111222 
TABS,ioos:station:wmo:42043:1,2006-03-03T03:30:00Z,28.9818,-94.9186,2.0,25.29,11111222 
TABS,ioos:station:wmo:42043:1,2006-03-03T04:00:00Z,28.9818,-94.9186,2.0,25.34,11111222 
TABS,ioos:station:wmo:42043:1,2006-03-03T04:30:00Z,28.9818,-94.9186,2.0,25.45,11111222 
TABS,ioos:station:wmo:42043:1,2006-03-03T05:00:00Z,28.9818,-94.9186,2.0,25.47,11111222 
TABS,ioos:station:wmo:42043:1,2006-03-03T05:30:00Z,28.9818,-94.9186,2.0,25.48,11111222 
TABS,ioos:station:wmo:42043:1,2006-03-03T06:00:00Z,28.9818,-94.9186,2.0,25.44,11111222 
TABS,ioos:station:wmo:42043:1,2006-03-03T06:30:00Z,28.9818,-94.9186,2.0,25.51,11111222 
TABS,ioos:station:wmo:42043:1,2006-03-03T07:00:00Z,28.9818,-94.9186,2.0,26.24,11111222 
TABS,ioos:station:wmo:42043:1,2006-03-03T07:30:00Z,28.9818,-94.9186,2.0,25.81,11111222 
TABS,ioos:station:wmo:42043:1,2006-03-03T08:00:00Z,28.9818,-94.9186,2.0,25.29,11111222 
TABS,ioos:station:wmo:42043:1,2006-03-03T08:30:00Z,28.9818,-94.9186,2.0,25.22,11111222 
TABS,ioos:station:wmo:42043:1,2006-03-03T09:00:00Z,28.9818,-94.9186,2.0,25.13,11111222 
TABS,ioos:station:wmo:42043:1,2006-03-03T09:30:00Z,28.9818,-94.9186,2.0,25.27,11111222 
TABS,ioos:station:wmo:42043:1,2006-03-03T10:00:00Z,28.9818,-94.9186,2.0,25.49,11111222 
TABS,ioos:station:wmo:42043:1,2006-03-03T10:30:00Z,28.9818,-94.9186,2.0,25.81,11111222 
TABS,ioos:station:wmo:42043:1,2006-03-03T11:00:00Z,28.9818,-94.9186,2.0,24.95,11111222 
TABS,ioos:station:wmo:42043:1,2006-03-03T11:30:00Z,28.9818,-94.9186,2.0,25.14,11111222 
TABS,ioos:station:wmo:42043:1,2006-03-03T12:00:00Z,28.9818,-94.9186,2.0,25.84,11111222 
TABS,ioos:station:wmo:42043:1,2006-03-03T12:30:00Z,28.9818,-94.9186,2.0,25.72,11111222 
TABS,ioos:station:wmo:42043:1,2006-03-03T13:00:00Z,28.9818,-94.9186,2.0,25.21,11111222 
TABS,ioos:station:wmo:42043:1,2006-03-03T13:30:00Z,28.9818,-94.9186,2.0,25.3,11111222 
TABS,ioos:station:wmo:42043:1,2006-03-03T14:00:00Z,28.9818,-94.9186,2.0,25.03,11111222 
TABS,ioos:station:wmo:42043:1,2006-03-03T14:30:00Z,28.9818,-94.9186,2.0,24.54,11111222 
TABS,ioos:station:wmo:42043:1,2006-03-03T15:00:00Z,28.9818,-94.9186,2.0,23.4,11111222 
TABS,ioos:station:wmo:42043:1,2006-03-03T15:30:00Z,28.9818,-94.9186,2.0,23.48,11111222 
TABS,ioos:station:wmo:42043:1,2006-03-03T16:00:00Z,28.9818,-94.9186,2.0,23.22,11111222 
TABS,ioos:station:wmo:42043:1,2006-03-03T16:30:00Z,28.9818,-94.9186,2.0,23.43,11111222 
TABS,ioos:station:wmo:42043:1,2006-03-03T17:00:00Z,28.9818,-94.9186,2.0,23.21,11111222 
TABS,ioos:station:wmo:42043:1,2006-03-03T17:30:00Z,28.9818,-94.9186,2.0,23.33,11111222 
TABS,ioos:station:wmo:42043:1,2006-03-03T18:00:00Z,28.9818,-94.9186,2.0,23.97,11111222 
TABS,ioos:station:wmo:42043:1,2006-03-03T18:30:00Z,28.9818,-94.9186,2.0,24.53,11111222 
TABS,ioos:station:wmo:42043:1,2006-03-03T19:00:00Z,28.9818,-94.9186,2.0,24.76,11111222 
TABS,ioos:station:wmo:42043:1,2006-03-03T19:30:00Z,28.9818,-94.9186,2.0,25.11,11111222 
TABS,ioos:station:wmo:42043:1,2006-03-03T20:00:00Z,28.9818,-94.9186,2.0,25.2,11111222 
TABS,ioos:station:wmo:42043:1,2006-03-03T20:30:00Z,28.9818,-94.9186,2.0,25.29,11111222 
TABS,ioos:station:wmo:42043:1,2006-03-03T21:00:00Z,28.9818,-94.9186,2.0,25.37,11111222 
TABS,ioos:station:wmo:42043:1,2006-03-03T21:30:00Z,28.9818,-94.9186,2.0,25.68,11111222 
TABS,ioos:station:wmo:42043:1,2006-03-03T22:00:00Z,28.9818,-94.9186,2.0,25.82,11111222 
TABS,ioos:station:wmo:42043:1,2006-03-03T22:30:00Z,28.9818,-94.9186,2.0,25.91,11111222 
TABS,ioos:station:wmo:42043:1,2006-03-03T23:00:00Z,28.9818,-94.9186,2.0,26.08,11111222 
TABS,ioos:station:wmo:42043:1,2006-03-03T23:30:00Z,28.9818,-94.9186,2.0,26.37,11111222 
TABS,ioos:station:wmo:42043:1,2006-03-04T00:00:00Z,28.9818,-94.9186,2.0,26.34,11111222 
TABS,ioos:station:wmo:42043:1,2006-03-04T00:30:00Z,28.9818,-94.9186,2.0,26.41,11111222 
TABS,ioos:station:wmo:42043:1,2006-03-04T01:00:00Z,28.9818,-94.9186,2.0,26.49,11111222 
TABS,ioos:station:wmo:42043:1,2006-03-04T01:30:00Z,28.9818,-94.9186,2.0,26.46,11111222 
TABS,ioos:station:wmo:42043:1,2006-03-04T02:00:00Z,28.9818,-94.9186,2.0,26.44,11111222 
TABS,ioos:station:wmo:42043:1,2006-03-04T02:30:00Z,28.9818,-94.9186,2.0,26.45,11111222 
TABS,ioos:station:wmo:42043:1,2006-03-04T03:30:00Z,28.9818,-94.9186,2.0,26.28,11111222 
TABS,ioos:station:wmo:42043:1,2006-03-04T04:00:00Z,28.9818,-94.9186,2.0,26.27,11111222 
TABS,ioos:station:wmo:42043:1,2006-03-04T04:30:00Z,28.9818,-94.9186,2.0,26.18,11111222 
TABS,ioos:station:wmo:42043:1,2006-03-04T05:00:00Z,28.9818,-94.9186,2.0,26.16,11111222 
TABS,ioos:station:wmo:42043:1,2006-03-04T05:30:00Z,28.9818,-94.9186,2.0,26.11,11111222 
TABS,ioos:station:wmo:42043:1,2006-03-04T06:00:00Z,28.9818,-94.9186,2.0,26.21,11111222 
TABS,ioos:station:wmo:42043:1,2006-03-04T06:30:00Z,28.9818,-94.9186,2.0,26.08,11111222 
TABS,ioos:station:wmo:42043:1,2006-03-04T07:00:00Z,28.9818,-94.9186,2.0,26.36,11111222 
TABS,ioos:station:wmo:42043:1,2006-03-04T07:30:00Z,28.9818,-94.9186,2.0,26.29,11111222 
TABS,ioos:station:wmo:42043:1,2006-03-04T08:00:00Z,28.9818,-94.9186,2.0,26.34,11111222 
TABS,ioos:station:wmo:42043:1,2006-03-04T08:30:00Z,28.9818,-94.9186,2.0,26.39,11111222 
TABS,ioos:station:wmo:42043:1,2006-03-04T09:00:00Z,28.9818,-94.9186,2.0,25.48,11111222 
TABS,ioos:station:wmo:42043:1,2006-03-04T09:30:00Z,28.9818,-94.9186,2.0,25.22,11111222 
TABS,ioos:station:wmo:42043:1,2006-03-04T10:00:00Z,28.9818,-94.9186,2.0,25.17,11111222 
TABS,ioos:station:wmo:42043:1,2006-03-04T10:30:00Z,28.9818,-94.9186,2.0,25.19,11111222 
TABS,ioos:station:wmo:42043:1,2006-03-04T11:00:00Z,28.9818,-94.9186,2.0,25.2,11111222 
TABS,ioos:station:wmo:42043:1,2006-03-04T11:30:00Z,28.9818,-94.9186,2.0,25.18,11111222 
TABS,ioos:station:wmo:42043:1,2006-03-04T12:00:00Z,28.9818,-94.9186,2.0,25.26,11111222 
TABS,ioos:station:wmo:42043:1,2006-03-04T12:30:00Z,28.9818,-94.9186,2.0,25.54,11111222 
TABS,ioos:station:wmo:42043:1,2006-03-04T13:00:00Z,28.9818,-94.9186,2.0,25.66,11111222 
TABS,ioos:station:wmo:42043:1,2006-03-04T13:30:00Z,28.9818,-94.9186,2.0,25.63,11111222 
TABS,ioos:station:wmo:42043:1,2006-03-04T14:00:00Z,28.9818,-94.9186,2.0,25.97,11111222 
TABS,ioos:station:wmo:42043:1,2006-03-04T14:30:00Z,28.9818,-94.9186,2.0,26.36,11111222 
TABS,ioos:station:wmo:42043:1,2006-03-04T15:00:00Z,28.9818,-94.9186,2.0,26.82,11111222 
TABS,ioos:station:wmo:42043:1,2006-03-04T15:30:00Z,28.9818,-94.9186,2.0,26.93,11111222 
TABS,ioos:station:wmo:42043:1,2006-03-04T16:00:00Z,28.9818,-94.9186,2.0,26.75,11111222 
TABS,ioos:station:wmo:42043:1,2006-03-04T16:30:00Z,28.9818,-94.9186,2.0,26.67,11111222 
TABS,ioos:station:wmo:42043:1,2006-03-04T17:00:00Z,28.9818,-94.9186,2.0,26.62,11111222 
TABS,ioos:station:wmo:42043:1,2006-03-04T18:00:00Z,28.9818,-94.9186,2.0,26.79,11111222 
TABS,ioos:station:wmo:42043:1,2006-03-04T18:30:00Z,28.9818,-94.9186,2.0,26.81,11111222 
TABS,ioos:station:wmo:42043:1,2006-03-04T19:00:00Z,28.9818,-94.9186,2.0,26.81,11111222 
TABS,ioos:station:wmo:42043:1,2006-03-04T19:30:00Z,28.9818,-94.9186,2.0,26.85,11111222 
TABS,ioos:station:wmo:42043:1,2006-03-04T20:00:00Z,28.9818,-94.9186,2.0,26.9,11111222 
TABS,ioos:station:wmo:42043:1,2006-03-04T20:30:00Z,28.9818,-94.9186,2.0,26.78,11111222 
TABS,ioos:station:wmo:42043:1,2006-03-04T21:00:00Z,28.9818,-94.9186,2.0,26.86,11111222 
TABS,ioos:station:wmo:42043:1,2006-03-04T21:30:00Z,28.9818,-94.9186,2.0,26.8,11111222 
TABS,ioos:station:wmo:42043:1,2006-03-04T22:00:00Z,28.9818,-94.9186,2.0,26.98,11111222 
TABS,ioos:station:wmo:42043:1,2006-03-04T22:30:00Z,28.9818,-94.9186,2.0,27.1,11111222 
TABS,ioos:station:wmo:42043:1,2006-03-04T23:00:00Z,28.9818,-94.9186,2.0,27.2,11111222 
TABS,ioos:station:wmo:42043:1,2006-03-04T23:30:00Z,28.9818,-94.9186,2.0,27.29,11111222 
TABS,ioos:station:wmo:42043:1,2006-03-05T00:00:00Z,28.9818,-94.9186,2.0,27.54,11111222 
TABS,ioos:station:wmo:42043:1,2006-03-05T00:30:00Z,28.9818,-94.9186,2.0,27.72,11111222 
TABS,ioos:station:wmo:42043:1,2006-03-05T01:00:00Z,28.9818,-94.9186,2.0,27.9,11111222 
TABS,ioos:station:wmo:42043:1,2006-03-05T01:30:00Z,28.9818,-94.9186,2.0,27.54,11111222 
TABS,ioos:station:wmo:42043:1,2006-03-05T02:00:00Z,28.9818,-94.9186,2.0,27.15,11111222 
TABS,ioos:station:wmo:42043:1,2006-03-05T02:30:00Z,28.9818,-94.9186,2.0,27.24,11111222 
TABS,ioos:station:wmo:42043:1,2006-03-05T03:00:00Z,28.9818,-94.9186,2.0,26.99,11111222 
TABS,ioos:station:wmo:42043:1,2006-03-05T03:30:00Z,28.9818,-94.9186,2.0,27.52,11111222 
TABS,ioos:station:wmo:42043:1,2006-03-05T04:00:00Z,28.9818,-94.9186,2.0,26.6,11111222 
TABS,ioos:station:wmo:42043:1,2006-03-05T04:30:00Z,28.9818,-94.9186,2.0,26.53,11111222 
TABS,ioos:station:wmo:42043:1,2006-03-05T05:00:00Z,28.9818,-94.9186,2.0,26.59,11111222 
TABS,ioos:station:wmo:42043:1,2006-03-05T05:30:00Z,28.9818,-94.9186,2.0,26.65,11111222 
TABS,ioos:station:wmo:42043:1,2006-03-05T06:00:00Z,28.9818,-94.9186,2.0,26.73,11111222 
TABS,ioos:station:wmo:42043:1,2006-03-05T06:30:00Z,28.9818,-94.9186,2.0,26.75,11111222 
TABS,ioos:station:wmo:42043:1,2006-03-05T07:00:00Z,28.9818,-94.9186,2.0,26.84,11111222 
TABS,ioos:station:wmo:42043:1,2006-03-05T07:30:00Z,28.9818,-94.9186,2.0,26.86,11111222 
TABS,ioos:station:wmo:42043:1,2006-03-05T08:00:00Z,28.9818,-94.9186,2.0,26.87,11111222 
TABS,ioos:station:wmo:42043:1,2006-03-05T08:30:00Z,28.9818,-94.9186,2.0,26.99,11111222 
TABS,ioos:station:wmo:42043:1,2006-03-05T09:00:00Z,28.9818,-94.9186,2.0,26.99,11111222 
TABS,ioos:station:wmo:42043:1,2006-03-05T09:30:00Z,28.9818,-94.9186,2.0,27.05,11111222 
TABS,ioos:station:wmo:42043:1,2006-03-05T10:00:00Z,28.9818,-94.9186,2.0,27.09,11111222 
TABS,ioos:station:wmo:42043:1,2006-03-05T10:30:00Z,28.9818,-94.9186,2.0,27.14,11111222 
TABS,ioos:station:wmo:42043:1,2006-03-05T11:00:00Z,28.9818,-94.9186,2.0,27.29,11111222 
TABS,ioos:station:wmo:42043:1,2006-03-05T11:30:00Z,28.9818,-94.9186,2.0,27.31,11111222 
TABS,ioos:station:wmo:42043:1,2006-03-05T12:00:00Z,28.9818,-94.9186,2.0,27.23,11111222 
TABS,ioos:station:wmo:42043:1,2006-03-05T12:30:00Z,28.9818,-94.9186,2.0,27.43,11111222 
TABS,ioos:station:wmo:42043:1,2006-03-05T13:00:00Z,28.9818,-94.9186,2.0,27.35,11111222 
TABS,ioos:station:wmo:42043:1,2006-03-05T13:30:00Z,28.9818,-94.9186,2.0,27.56,11111222 
TABS,ioos:station:wmo:42043:1,2006-03-05T14:00:00Z,28.9818,-94.9186,2.0,27.63,11111222 
TABS,ioos:station:wmo:42043:1,2006-03-05T14:30:00Z,28.9818,-94.9186,2.0,27.74,11111222 
TABS,ioos:station:wmo:42043:1,2006-03-05T15:00:00Z,28.9818,-94.9186,2.0,27.14,11111222 
TABS,ioos:station:wmo:42043:1,2006-03-05T15:30:00Z,28.9818,-94.9186,2.0,27.18,11111222 
TABS,ioos:station:wmo:42043:1,2006-03-05T16:00:00Z,28.9818,-94.9186,2.0,27.07,11111222 
TABS,ioos:station:wmo:42043:1,2006-03-05T16:30:00Z,28.9818,-94.9186,2.0,27.15,11111222 
TABS,ioos:station:wmo:42043:1,2006-03-05T17:00:00Z,28.9818,-94.9186,2.0,27.12,11111222 
TABS,ioos:station:wmo:42043:1,2006-03-05T17:30:00Z,28.9818,-94.9186,2.0,27.23,11111222 
TABS,ioos:station:wmo:42043:1,2006-03-05T18:00:00Z,28.9818,-94.9186,2.0,27.36,11111222 
TABS,ioos:station:wmo:42043:1,2006-03-05T18:30:00Z,28.9818,-94.9186,2.0,27.39,11111222 
TABS,ioos:station:wmo:42043:1,2006-03-05T19:00:00Z,28.9818,-94.9186,2.0,27.54,11111222 
TABS,ioos:station:wmo:42043:1,2006-03-05T19:30:00Z,28.9818,-94.9186,2.0,27.51,11111222 
TABS,ioos:station:wmo:42043:1,2006-03-05T20:00:00Z,28.9818,-94.9186,2.0,27.29,11111222 
TABS,ioos:station:wmo:42043:1,2006-03-05T20:30:00Z,28.9818,-94.9186,2.0,27.25,11111222 
TABS,ioos:station:wmo:42043:1,2006-03-05T21:00:00Z,28.9818,-94.9186,2.0,27.25,11111222 
TABS,ioos:station:wmo:42043:1,2006-03-05T21:30:00Z,28.9818,-94.9186,2.0,27.2,11111222 
TABS,ioos:station:wmo:42043:1,2006-03-05T22:00:00Z,28.9818,-94.9186,2.0,27.26,11111222 
TABS,ioos:station:wmo:42043:1,2006-03-05T22:30:00Z,28.9818,-94.9186,2.0,27.13,11111222 
TABS,ioos:station:wmo:42043:1,2006-03-05T23:00:00Z,28.9818,-94.9186,2.0,27.07,11111222 
TABS,ioos:station:wmo:42043:1,2006-03-05T23:30:00Z,28.9818,-94.9186,2.0,27.04,11111222 
TABS,ioos:station:wmo:42043:1,2006-03-06T00:00:00Z,28.9818,-94.9186,2.0,27.03,11111222 
TABS,ioos:station:wmo:42043:1,2006-03-06T00:30:00Z,28.9818,-94.9186,2.0,27.04,11111222 
TABS,ioos:station:wmo:42043:1,2006-03-06T01:00:00Z,28.9818,-94.9186,2.0,27.0,11111222 
TABS,ioos:station:wmo:42043:1,2006-03-06T01:30:00Z,28.9818,-94.9186,2.0,26.97,11111222 
TABS,ioos:station:wmo:42043:1,2006-03-06T02:00:00Z,28.9818,-94.9186,2.0,26.96,11111222 
TABS,ioos:station:wmo:42043:1,2006-03-06T02:30:00Z,28.9818,-94.9186,2.0,26.98,11111222 
TABS,ioos:station:wmo:42043:1,2006-03-06T03:00:00Z,28.9818,-94.9186,2.0,27.03,11111222 
TABS,ioos:station:wmo:42043:1,2006-03-06T03:30:00Z,28.9818,-94.9186,2.0,26.98,11111222 
TABS,ioos:station:wmo:42043:1,2006-03-06T04:30:00Z,28.9818,-94.9186,2.0,27.02,11111222 
TABS,ioos:station:wmo:42043:1,2006-03-06T05:00:00Z,28.9818,-94.9186,2.0,26.91,11111222 
TABS,ioos:station:wmo:42043:1,2006-03-06T05:30:00Z,28.9818,-94.9186,2.0,27.02,11111222 
TABS,ioos:station:wmo:42043:1,2006-03-06T06:00:00Z,28.9818,-94.9186,2.0,26.9,11111222 
TABS,ioos:station:wmo:42043:1,2006-03-06T06:30:00Z,28.9818,-94.9186,2.0,26.87,11111222 
TABS,ioos:station:wmo:42043:1,2006-03-06T07:00:00Z,28.9818,-94.9186,2.0,26.77,11111222 
TABS,ioos:station:wmo:42043:1,2006-03-06T07:30:00Z,28.9818,-94.9186,2.0,26.81,11111222 
TABS,ioos:station:wmo:42043:1,2006-03-06T08:00:00Z,28.9818,-94.9186,2.0,26.75,11111222 
TABS,ioos:station:wmo:42043:1,2006-03-06T08:30:00Z,28.9818,-94.9186,2.0,26.77,11111222 
TABS,ioos:station:wmo:42043:1,2006-03-06T09:00:00Z,28.9818,-94.9186,2.0,26.77,11111222 
TABS,ioos:station:wmo:42043:1,2006-03-06T09:30:00Z,28.9818,-94.9186,2.0,26.81,11111222 
TABS,ioos:station:wmo:42043:1,2006-03-06T10:00:00Z,28.9818,-94.9186,2.0,26.89,11111222 
TABS,ioos:station:wmo:42043:1,2006-03-06T10:30:00Z,28.9818,-94.9186,2.0,27.0,11111222 
TABS,ioos:station:wmo:42043:1,2006-03-06T11:00:00Z,28.9818,-94.9186,2.0,26.9,11111222 
TABS,ioos:station:wmo:42043:1,2006-03-06T11:30:00Z,28.9818,-94.9186,2.0,27.3,11111222 
TABS,ioos:station:wmo:42043:1,2006-03-06T12:30:00Z,28.9818,-94.9186,2.0,26.53,11111222 
TABS,ioos:station:wmo:42043:1,2006-03-06T13:00:00Z,28.9818,-94.9186,2.0,26.6,11111222 
TABS,ioos:station:wmo:42043:1,2006-03-06T13:30:00Z,28.9818,-94.9186,2.0,26.82,11111222 
TABS,ioos:station:wmo:42043:1,2006-03-06T14:00:00Z,28.9818,-94.9186,2.0,26.77,11111222 
TABS,ioos:station:wmo:42043:1,2006-03-06T14:30:00Z,28.9818,-94.9186,2.0,26.32,11111222 
TABS,ioos:station:wmo:42043:1,2006-03-06T15:00:00Z,28.9818,-94.9186,2.0,25.46,11111222 
TABS,ioos:station:wmo:42043:1,2006-03-06T15:30:00Z,28.9818,-94.9186,2.0,25.48,11111222 
TABS,ioos:station:wmo:42043:1,2006-03-06T16:00:00Z,28.9818,-94.9186,2.0,25.48,11111222 
TABS,ioos:station:wmo:42043:1,2006-03-06T16:30:00Z,28.9818,-94.9186,2.0,25.52,11111222 
TABS,ioos:station:wmo:42043:1,2006-03-06T17:00:00Z,28.9818,-94.9186,2.0,25.69,11111222 
TABS,ioos:station:wmo:42043:1,2006-03-06T17:30:00Z,28.9818,-94.9186,2.0,25.75,11111222 
TABS,ioos:station:wmo:42043:1,2006-03-06T18:00:00Z,28.9818,-94.9186,2.0,25.79,11111222 